Regional Weather Roundup
Issued by NWS

Home | Current Version | Previous Version | Graphics & Text | Print | Product List | Glossary On
Versions: 1 2 3 4 5 6 7 8 9 10 11 12 13 14 15 16 17 18 19 20 21 22 23 24 25 26 27 28 29 30 31 32 33 34 35 36 37 38 39 40 41 42 43 44 45 46 47 48 49 50
394
ASUS45 KCYS 191610
RWRWY

WYOMING REGIONAL WEATHER ROUNDUP
NATIONAL WEATHER SERVICE CHEYENNE WY
1000 AM MDT THU APR 19 2018

NOTE:  "FAIR" INDICATES FEW OR NO CLOUDS BELOW 12,000 FEET
WITH NO SIGNIFICANT WEATHER AND/OR OBSTRUCTIONS TO VISIBILITY.

WYZ001-191700-
YELLOWSTONE NATIONAL PARK

CITY           SKY/WX    TMP DP  RH WIND       PRES   REMARKS
LK YELLOWSTONE   N/A     34  14  43 E3        30.10F
W YELLOWSTONE  NOT AVBL

$$
WYZ002>013-054>058-071-098>099-191700-
NORTHERN WYOMING

CITY           SKY/WX    TMP DP  RH WIND       PRES   REMARKS
JACKSON        FAIR      39  19  44 N12       30.05F WCI  32
CODY           FAIR      43  22  43 CALM      30.13F
GREYBULL       FAIR      46  30  53 N3        30.12F
WORLAND        FAIR      46  29  51 W6        30.11S
SHERIDAN       FAIR      52  24  33 SE25G33   30.13F
BUFFALO        FAIR      46  25  43 SE15      30.17F
GILLETTE         N/A     47  27  45 MISG      30.20F
HULETT         FAIR      50  27  40 CALM      30.25F
NEWCASTLE      FAIR      46  25  42 SE24G30   30.27F

$$
WYZ014>020-022>026-101>103-191700-
CENTRAL WYOMING

CITY           SKY/WX    TMP DP  RH WIND       PRES   REMARKS
BIG PINEY      FAIR      41  11  29 NE6       30.05F
PINEDALE       FAIR      41  12  30 CALM      30.05F
DUBOIS         PTSUNNY   32  18  55 E8        30.12S WCI  25
LANDER         FAIR      42  22  44 N12       30.10F
RIVERTON       FAIR      39  26  59 CALM      30.11F
CASPER         FAIR      41  26  55 VRB3      30.13F
DOUGLAS        FAIR      46  26  45 SE28G37   30.17F

$$
WYZ021-027>030-104>119-191700-
SOUTHERN WYOMING

CITY           SKY/WX    TMP DP  RH WIND       PRES   REMARKS
EVANSTON       FAIR      40  13  33 E16       29.97F WCI  31
KEMMERER       FAIR      41  12  30 N15G23    30.02S
FORT BRIDGER   FAIR      40  11  31 NE7       30.03S WCI  35
ROCK SPRINGS   FAIR      40  14  34 NE12      30.03F WCI  33
DIXON          FAIR      54  15  21 E7        30.06F
RAWLINS        FAIR      42  18  37 E12       30.10F
SARATOGA       FAIR      52   9  17 E12       30.09F
LARAMIE        FAIR      38  14  37 SE32G41   30.14F WCI  25
CHEYENNE       FAIR      40  18  41 S22G35    30.24F WCI  30
TORRINGTON     FAIR      47  31  53 SE17G24   30.25F
PINE BLUFFS    FAIR      46  19  34 S22G29    30.27F

$$




USA.gov is the U.S. government's official web portal to all federal, state and local government web resources and services.